Location: Asheville, NC
(35.6000°N, 82.5500°W)
Time: 06:28:27
(UTC-05:00)

Vanguard 2 - Pass Details

Date: 17 February 2018
Orbit: 553 x 2939 km, 32.9° (Epoch: 24 February)

Event Time Altitude Azimuth Distance (km) Brightness Sun altitude
Rises 23:25:33 0° 274° (W) 3,226 - -60.2°
Reaches altitude 10° 23:28:29 10° 264° (W) 2,075 - -60.6°
Maximum altitude 23:32:24 29° 203° (SSW) 1,050 - -61.1°
Drops below altitude 10° 23:35:52 10° 140° (SE) 1,812 - -61.5°
Sets 23:38:15 0° 129° (SE) 2,738 - -61.8°
